owner,sensor,date,latitude,longitude,vertical_datum,wind_speed,wind_to_direction,wind_speed_of_gust,qcFlag 
WAVCIS,ioos:station:WAVCIS:CSI06:1,2011-01-01T00:00:00Z,28.8667,-90.4833,10.0,13.0,143.0,,'11111222,11111222,99999999' 
WAVCIS,ioos:station:WAVCIS:CSI06:1,2011-01-01T01:00:00Z,28.8667,-90.4833,10.0,12.37,145.0,,'11111222,11111222,99999999' 
WAVCIS,ioos:station:WAVCIS:CSI06:1,2011-01-01T02:00:00Z,28.8667,-90.4833,10.0,11.84,148.0,,'11111222,11111222,99999999' 
WAVCIS,ioos:station:WAVCIS:CSI06:1,2011-01-01T03:00:00Z,28.8667,-90.4833,10.0,11.67,151.0,,'11111222,11111222,99999999' 
WAVCIS,ioos:station:WAVCIS:CSI06:1,2011-01-01T04:00:00Z,28.8667,-90.4833,10.0,12.84,149.0,,'11111222,11111222,99999999' 
WAVCIS,ioos:station:WAVCIS:CSI06:1,2011-01-01T05:00:00Z,28.8667,-90.4833,10.0,11.08,153.0,,'11111222,11111222,99999999' 
WAVCIS,ioos:station:WAVCIS:CSI06:1,2011-01-01T06:00:00Z,28.8667,-90.4833,10.0,10.71,153.0,,'11111222,11111222,99999999' 
WAVCIS,ioos:station:WAVCIS:CSI06:1,2011-01-01T07:00:00Z,28.8667,-90.4833,10.0,7.57,163.0,,'11111222,11111222,99999999' 
WAVCIS,ioos:station:WAVCIS:CSI06:1,2011-01-01T08:00:00Z,28.8667,-90.4833,10.0,8.55,161.0,,'11111222,11111222,99999999' 
WAVCIS,ioos:station:WAVCIS:CSI06:1,2011-01-01T09:00:00Z,28.8667,-90.4833,10.0,7.8,167.0,,'11111222,11111222,99999999' 
WAVCIS,ioos:station:WAVCIS:CSI06:1,2011-01-01T10:00:00Z,28.8667,-90.4833,10.0,6.822,180.0,,'11111222,11111222,99999999' 
WAVCIS,ioos:station:WAVCIS:CSI06:1,2011-01-01T11:00:00Z,28.8667,-90.4833,10.0,8.86,172.0,,'11111222,11111222,99999999' 
WAVCIS,ioos:station:WAVCIS:CSI06:1,2011-01-01T12:00:00Z,28.8667,-90.4833,10.0,7.35,180.0,,'11111222,11111222,99999999' 
WAVCIS,ioos:station:WAVCIS:CSI06:1,2011-01-01T13:00:00Z,28.8667,-90.4833,10.0,7.26,180.0,,'11111222,11111222,99999999' 
WAVCIS,ioos:station:WAVCIS:CSI06:1,2011-01-01T14:00:00Z,28.8667,-90.4833,10.0,9.55,178.0,,'11111222,11111222,99999999' 
WAVCIS,ioos:station:WAVCIS:CSI06:1,2011-01-01T15:00:00Z,28.8667,-90.4833,10.0,9.01,183.0,,'11111222,11111222,99999999' 
WAVCIS,ioos:station:WAVCIS:CSI06:1,2011-01-01T16:00:00Z,28.8667,-90.4833,10.0,8.03,200.0,,'11111222,11111222,99999999' 
WAVCIS,ioos:station:WAVCIS:CSI06:1,2011-01-01T17:00:00Z,28.8667,-90.4833,10.0,8.99,212.0,,'11111222,11111222,99999999' 
WAVCIS,ioos:station:WAVCIS:CSI06:1,2011-01-01T18:00:00Z,28.8667,-90.4833,10.0,8.16,227.0,,'11111222,11111222,99999999' 
WAVCIS,ioos:station:WAVCIS:CSI06:1,2011-01-01T19:00:00Z,28.8667,-90.4833,10.0,7.66,238.0,,'11111222,11111222,99999999' 
WAVCIS,ioos:station:WAVCIS:CSI06:1,2011-01-01T20:00:00Z,28.8667,-90.4833,10.0,7.9,6.0,,'11111222,11111222,99999999' 
WAVCIS,ioos:station:WAVCIS:CSI06:1,2011-01-01T21:00:00Z,28.8667,-90.4833,10.0,12.24,13.0,,'11111222,11111222,99999999' 
WAVCIS,ioos:station:WAVCIS:CSI06:1,2011-01-01T22:00:00Z,28.8667,-90.4833,10.0,11.43,14.0,,'11111222,11111222,99999999' 
WAVCIS,ioos:station:WAVCIS:CSI06:1,2011-01-01T23:00:00Z,28.8667,-90.4833,10.0,10.86,16.0,,'11111222,11111222,99999999' 
WAVCIS,ioos:station:WAVCIS:CSI06:1,2011-01-02T00:00:00Z,28.8667,-90.4833,10.0,13.21,20.0,,'11111222,11111222,99999999' 
WAVCIS,ioos:station:WAVCIS:CSI06:1,2011-01-02T01:00:00Z,28.8667,-90.4833,10.0,11.34,20.0,,'11111222,11111222,99999999' 
WAVCIS,ioos:station:WAVCIS:CSI06:1,2011-01-02T02:00:00Z,28.8667,-90.4833,10.0,14.22,13.0,,'11111222,11111222,99999999' 
WAVCIS,ioos:station:WAVCIS:CSI06:1,2011-01-02T03:00:00Z,28.8667,-90.4833,10.0,15.06,13.0,,'11111222,11111222,99999999' 
WAVCIS,ioos:station:WAVCIS:CSI06:1,2011-01-02T04:00:00Z,28.8667,-90.4833,10.0,14.32,22.0,,'11111222,11111222,99999999' 
WAVCIS,ioos:station:WAVCIS:CSI06:1,2011-01-02T05:00:00Z,28.8667,-90.4833,10.0,12.65,28.0,,'11111222,11111222,99999999' 
WAVCIS,ioos:station:WAVCIS:CSI06:1,2011-01-02T06:00:00Z,28.8667,-90.4833,10.0,11.85,17.0,,'11111222,11111222,99999999' 
WAVCIS,ioos:station:WAVCIS:CSI06:1,2011-01-02T07:00:00Z,28.8667,-90.4833,10.0,11.47,16.0,,'11111222,11111222,99999999' 
WAVCIS,ioos:station:WAVCIS:CSI06:1,2011-01-02T08:00:00Z,28.8667,-90.4833,10.0,9.6,6.0,,'11111222,11111222,99999999' 
WAVCIS,ioos:station:WAVCIS:CSI06:1,2011-01-02T09:00:00Z,28.8667,-90.4833,10.0,9.53,8.0,,'11111222,11111222,99999999' 
WAVCIS,ioos:station:WAVCIS:CSI06:1,2011-01-02T10:00:00Z,28.8667,-90.4833,10.0,9.26,6.0,,'11111222,11111222,99999999' 
WAVCIS,ioos:station:WAVCIS:CSI06:1,2011-01-02T11:00:00Z,28.8667,-90.4833,10.0,9.99,7.0,,'11111222,11111222,99999999' 
WAVCIS,ioos:station:WAVCIS:CSI06:1,2011-01-02T12:00:00Z,28.8667,-90.4833,10.0,12.99,9.0,,'11111222,11111222,99999999' 
WAVCIS,ioos:station:WAVCIS:CSI06:1,2011-01-02T13:00:00Z,28.8667,-90.4833,10.0,14.12,12.0,,'11111222,11111222,99999999' 
WAVCIS,ioos:station:WAVCIS:CSI06:1,2011-01-02T14:00:00Z,28.8667,-90.4833,10.0,12.86,12.0,,'11111222,11111222,99999999' 
WAVCIS,ioos:station:WAVCIS:CSI06:1,2011-01-02T15:00:00Z,28.8667,-90.4833,10.0,11.35,10.0,,'11111222,11111222,99999999' 
WAVCIS,ioos:station:WAVCIS:CSI06:1,2011-01-02T16:00:00Z,28.8667,-90.4833,10.0,10.78,16.0,,'11111222,11111222,99999999' 
WAVCIS,ioos:station:WAVCIS:CSI06:1,2011-01-02T17:00:00Z,28.8667,-90.4833,10.0,10.39,13.0,,'11111222,11111222,99999999' 
WAVCIS,ioos:station:WAVCIS:CSI06:1,2011-01-02T18:00:00Z,28.8667,-90.4833,10.0,9.56,10.0,,'11111222,11111222,99999999' 
WAVCIS,ioos:station:WAVCIS:CSI06:1,2011-01-02T19:00:00Z,28.8667,-90.4833,10.0,8.68,8.0,,'11111222,11111222,99999999' 
WAVCIS,ioos:station:WAVCIS:CSI06:1,2011-01-02T20:00:00Z,28.8667,-90.4833,10.0,8.13,7.0,,'11111222,11111222,99999999' 
WAVCIS,ioos:station:WAVCIS:CSI06:1,2011-01-02T21:00:00Z,28.8667,-90.4833,10.0,7.64,17.0,,'11111222,11111222,99999999' 
WAVCIS,ioos:station:WAVCIS:CSI06:1,2011-01-02T22:00:00Z,28.8667,-90.4833,10.0,8.19,19.0,,'11111222,11111222,99999999' 
WAVCIS,ioos:station:WAVCIS:CSI06:1,2011-01-02T23:00:00Z,28.8667,-90.4833,10.0,9.57,21.0,,'11111222,11111222,99999999' 
WAVCIS,ioos:station:WAVCIS:CSI06:1,2011-01-03T00:00:00Z,28.8667,-90.4833,10.0,10.31,23.0,,'11111222,11111222,99999999' 
WAVCIS,ioos:station:WAVCIS:CSI06:1,2011-01-03T01:00:00Z,28.8667,-90.4833,10.0,12.13,14.0,,'11111222,11111222,99999999' 
WAVCIS,ioos:station:WAVCIS:CSI06:1,2011-01-03T02:00:00Z,28.8667,-90.4833,10.0,11.18,19.0,,'11111222,11111222,99999999' 
WAVCIS,ioos:station:WAVCIS:CSI06:1,2011-01-03T03:00:00Z,28.8667,-90.4833,10.0,11.0,26.0,,'11111222,11111222,99999999' 
WAVCIS,ioos:station:WAVCIS:CSI06:1,2011-01-03T04:00:00Z,28.8667,-90.4833,10.0,10.04,38.0,,'11111222,11111222,99999999' 
WAVCIS,ioos:station:WAVCIS:CSI06:1,2011-01-03T05:00:00Z,28.8667,-90.4833,10.0,10.25,34.0,,'11111222,11111222,99999999' 
WAVCIS,ioos:station:WAVCIS:CSI06:1,2011-01-03T06:00:00Z,28.8667,-90.4833,10.0,9.52,44.0,,'11111222,11111222,99999999' 
WAVCIS,ioos:station:WAVCIS:CSI06:1,2011-01-03T07:00:00Z,28.8667,-90.4833,10.0,9.34,44.0,,'11111222,11111222,99999999' 
WAVCIS,ioos:station:WAVCIS:CSI06:1,2011-01-03T08:00:00Z,28.8667,-90.4833,10.0,8.85,43.0,,'11111222,11111222,99999999' 
WAVCIS,ioos:station:WAVCIS:CSI06:1,2011-01-03T09:00:00Z,28.8667,-90.4833,10.0,8.59,44.0,,'11111222,11111222,99999999' 
WAVCIS,ioos:station:WAVCIS:CSI06:1,2011-01-03T10:00:00Z,28.8667,-90.4833,10.0,9.04,50.0,,'11111222,11111222,99999999' 
WAVCIS,ioos:station:WAVCIS:CSI06:1,2011-01-03T11:00:00Z,28.8667,-90.4833,10.0,9.23,49.0,,'11111222,11111222,99999999' 
WAVCIS,ioos:station:WAVCIS:CSI06:1,2011-01-03T12:00:00Z,28.8667,-90.4833,10.0,8.66,67.0,,'11111222,11111222,99999999' 
WAVCIS,ioos:station:WAVCIS:CSI06:1,2011-01-03T13:00:00Z,28.8667,-90.4833,10.0,8.3,64.0,,'11111222,11111222,99999999' 
WAVCIS,ioos:station:WAVCIS:CSI06:1,2011-01-03T14:00:00Z,28.8667,-90.4833,10.0,8.7,67.0,,'11111222,11111222,99999999' 
WAVCIS,ioos:station:WAVCIS:CSI06:1,2011-01-03T15:00:00Z,28.8667,-90.4833,10.0,7.91,74.0,,'11111222,11111222,99999999' 
WAVCIS,ioos:station:WAVCIS:CSI06:1,2011-01-03T16:00:00Z,28.8667,-90.4833,10.0,8.02,73.0,,'11111222,11111222,99999999' 
WAVCIS,ioos:station:WAVCIS:CSI06:1,2011-01-03T17:00:00Z,28.8667,-90.4833,10.0,8.32,67.0,,'11111222,11111222,99999999' 
WAVCIS,ioos:station:WAVCIS:CSI06:1,2011-01-03T18:00:00Z,28.8667,-90.4833,10.0,8.91,71.0,,'11111222,11111222,99999999' 
WAVCIS,ioos:station:WAVCIS:CSI06:1,2011-01-03T19:00:00Z,28.8667,-90.4833,10.0,8.52,71.0,,'11111222,11111222,99999999' 
WAVCIS,ioos:station:WAVCIS:CSI06:1,2011-01-03T20:00:00Z,28.8667,-90.4833,10.0,7.32,78.0,,'11111222,11111222,99999999' 
WAVCIS,ioos:station:WAVCIS:CSI06:1,2011-01-03T21:00:00Z,28.8667,-90.4833,10.0,6.724,67.0,,'11111222,11111222,99999999' 
WAVCIS,ioos:station:WAVCIS:CSI06:1,2011-01-03T22:00:00Z,28.8667,-90.4833,10.0,7.13,62.0,,'11111222,11111222,99999999' 
WAVCIS,ioos:station:WAVCIS:CSI06:1,2011-01-03T23:00:00Z,28.8667,-90.4833,10.0,7.16,61.0,,'11111222,11111222,99999999' 
WAVCIS,ioos:station:WAVCIS:CSI06:1,2011-01-04T00:00:00Z,28.8667,-90.4833,10.0,6.966,63.0,,'11111222,11111222,99999999' 
WAVCIS,ioos:station:WAVCIS:CSI06:1,2011-01-04T01:00:00Z,28.8667,-90.4833,10.0,7.26,62.0,,'11111222,11111222,99999999' 
WAVCIS,ioos:station:WAVCIS:CSI06:1,2011-01-04T02:00:00Z,28.8667,-90.4833,10.0,7.8,61.0,,'11111222,11111222,99999999' 
WAVCIS,ioos:station:WAVCIS:CSI06:1,2011-01-04T03:00:00Z,28.8667,-90.4833,10.0,7.74,74.0,,'11111222,11111222,99999999' 
WAVCIS,ioos:station:WAVCIS:CSI06:1,2011-01-04T04:00:00Z,28.8667,-90.4833,10.0,7.47,78.0,,'11111222,11111222,99999999' 
WAVCIS,ioos:station:WAVCIS:CSI06:1,2011-01-04T05:00:00Z,28.8667,-90.4833,10.0,6.861,85.0,,'11111222,11111222,99999999' 
WAVCIS,ioos:station:WAVCIS:CSI06:1,2011-01-04T06:00:00Z,28.8667,-90.4833,10.0,5.872,80.0,,'11111222,11111222,99999999' 
WAVCIS,ioos:station:WAVCIS:CSI06:1,2011-01-04T07:00:00Z,28.8667,-90.4833,10.0,5.58,79.0,,'11111222,11111222,99999999' 
WAVCIS,ioos:station:WAVCIS:CSI06:1,2011-01-04T08:00:00Z,28.8667,-90.4833,10.0,5.499,93.0,,'11111222,11111222,99999999' 
WAVCIS,ioos:station:WAVCIS:CSI06:1,2011-01-04T09:00:00Z,28.8667,-90.4833,10.0,4.368,82.0,,'11111222,11111222,99999999' 
WAVCIS,ioos:station:WAVCIS:CSI06:1,2011-01-04T10:00:00Z,28.8667,-90.4833,10.0,4.496,54.0,,'11111222,11111222,99999999' 
WAVCIS,ioos:station:WAVCIS:CSI06:1,2011-01-04T11:00:00Z,28.8667,-90.4833,10.0,3.289,42.0,,'11111222,11111222,99999999' 
WAVCIS,ioos:station:WAVCIS:CSI06:1,2011-01-04T12:00:00Z,28.8667,-90.4833,10.0,6.047,30.0,,'11111222,11111222,99999999' 
WAVCIS,ioos:station:WAVCIS:CSI06:1,2011-01-04T13:00:00Z,28.8667,-90.4833,10.0,5.048,43.0,,'11111222,11111222,99999999' 
WAVCIS,ioos:station:WAVCIS:CSI06:1,2011-01-04T14:00:00Z,28.8667,-90.4833,10.0,6.349,65.0,,'11111222,11111222,99999999' 
WAVCIS,ioos:station:WAVCIS:CSI06:1,2011-01-04T15:00:00Z,28.8667,-90.4833,10.0,6.8,50.0,,'11111222,11111222,99999999' 
WAVCIS,ioos:station:WAVCIS:CSI06:1,2011-01-04T16:00:00Z,28.8667,-90.4833,10.0,6.405,52.0,,'11111222,11111222,99999999' 
WAVCIS,ioos:station:WAVCIS:CSI06:1,2011-01-04T17:00:00Z,28.8667,-90.4833,10.0,5.945,50.0,,'11111222,11111222,99999999' 
WAVCIS,ioos:station:WAVCIS:CSI06:1,2011-01-04T18:00:00Z,28.8667,-90.4833,10.0,6.46,57.0,,'11111222,11111222,99999999' 
WAVCIS,ioos:station:WAVCIS:CSI06:1,2011-01-04T19:00:00Z,28.8667,-90.4833,10.0,7.06,68.0,,'11111222,11111222,99999999' 
WAVCIS,ioos:station:WAVCIS:CSI06:1,2011-01-04T20:00:00Z,28.8667,-90.4833,10.0,7.25,67.0,,'11111222,11111222,99999999' 
WAVCIS,ioos:station:WAVCIS:CSI06:1,2011-01-04T21:00:00Z,28.8667,-90.4833,10.0,7.24,69.0,,'11111222,11111222,99999999' 
WAVCIS,ioos:station:WAVCIS:CSI06:1,2011-01-04T22:00:00Z,28.8667,-90.4833,10.0,7.79,72.0,,'11111222,11111222,99999999' 
WAVCIS,ioos:station:WAVCIS:CSI06:1,2011-01-04T23:00:00Z,28.8667,-90.4833,10.0,7.88,82.0,,'11111222,11111222,99999999' 
WAVCIS,ioos:station:WAVCIS:CSI06:1,2011-01-05T00:00:00Z,28.8667,-90.4833,10.0,8.52,87.0,,'11111222,11111222,99999999' 
WAVCIS,ioos:station:WAVCIS:CSI06:1,2011-01-05T01:00:00Z,28.8667,-90.4833,10.0,7.87,105.0,,'11111222,11111222,99999999' 
WAVCIS,ioos:station:WAVCIS:CSI06:1,2011-01-05T02:00:00Z,28.8667,-90.4833,10.0,8.42,114.0,,'11111222,11111222,99999999' 
WAVCIS,ioos:station:WAVCIS:CSI06:1,2011-01-05T03:00:00Z,28.8667,-90.4833,10.0,8.16,113.0,,'11111222,11111222,99999999' 
WAVCIS,ioos:station:WAVCIS:CSI06:1,2011-01-05T04:00:00Z,28.8667,-90.4833,10.0,7.38,112.0,,'11111222,11111222,99999999' 
WAVCIS,ioos:station:WAVCIS:CSI06:1,2011-01-05T05:00:00Z,28.8667,-90.4833,10.0,7.69,120.0,,'11111222,11111222,99999999' 
WAVCIS,ioos:station:WAVCIS:CSI06:1,2011-01-05T06:00:00Z,28.8667,-90.4833,10.0,6.365,113.0,,'11111222,11111222,99999999' 
WAVCIS,ioos:station:WAVCIS:CSI06:1,2011-01-05T07:00:00Z,28.8667,-90.4833,10.0,4.828,120.0,,'11111222,11111222,99999999' 
WAVCIS,ioos:station:WAVCIS:CSI06:1,2011-01-05T08:00:00Z,28.8667,-90.4833,10.0,6.397,136.0,,'11111222,11111222,99999999' 
WAVCIS,ioos:station:WAVCIS:CSI06:1,2011-01-05T09:00:00Z,28.8667,-90.4833,10.0,7.32,159.0,,'11111222,11111222,99999999' 
WAVCIS,ioos:station:WAVCIS:CSI06:1,2011-01-05T10:00:00Z,28.8667,-90.4833,10.0,6.033,172.0,,'11111222,11111222,99999999' 
WAVCIS,ioos:station:WAVCIS:CSI06:1,2011-01-05T11:00:00Z,28.8667,-90.4833,10.0,9.39,193.0,,'11111222,11111222,99999999' 
WAVCIS,ioos:station:WAVCIS:CSI06:1,2011-01-05T12:00:00Z,28.8667,-90.4833,10.0,11.25,196.0,,'11111222,11111222,99999999' 
WAVCIS,ioos:station:WAVCIS:CSI06:1,2011-01-05T13:00:00Z,28.8667,-90.4833,10.0,10.41,203.0,,'11111222,11111222,99999999' 
WAVCIS,ioos:station:WAVCIS:CSI06:1,2011-01-05T14:00:00Z,28.8667,-90.4833,10.0,7.66,231.0,,'11111222,11111222,99999999' 
WAVCIS,ioos:station:WAVCIS:CSI06:1,2011-01-05T15:00:00Z,28.8667,-90.4833,10.0,6.663,233.0,,'11111222,11111222,99999999' 
WAVCIS,ioos:station:WAVCIS:CSI06:1,2011-01-05T16:00:00Z,28.8667,-90.4833,10.0,8.75,235.0,,'11111222,11111222,99999999' 
WAVCIS,ioos:station:WAVCIS:CSI06:1,2011-01-05T17:00:00Z,28.8667,-90.4833,10.0,8.99,236.0,,'11111222,11111222,99999999' 
WAVCIS,ioos:station:WAVCIS:CSI06:1,2011-01-05T18:00:00Z,28.8667,-90.4833,10.0,8.63,240.0,,'11111222,11111222,99999999' 
WAVCIS,ioos:station:WAVCIS:CSI06:1,2011-01-05T19:00:00Z,28.8667,-90.4833,10.0,8.96,246.0,,'11111222,11111222,99999999' 
WAVCIS,ioos:station:WAVCIS:CSI06:1,2011-01-05T20:00:00Z,28.8667,-90.4833,10.0,9.16,237.0,,'11111222,11111222,99999999' 
WAVCIS,ioos:station:WAVCIS:CSI06:1,2011-01-05T21:00:00Z,28.8667,-90.4833,10.0,9.23,244.0,,'11111222,11111222,99999999' 
WAVCIS,ioos:station:WAVCIS:CSI06:1,2011-01-05T22:00:00Z,28.8667,-90.4833,10.0,9.63,289.0,,'11111222,11111222,99999999' 
WAVCIS,ioos:station:WAVCIS:CSI06:1,2011-01-05T23:00:00Z,28.8667,-90.4833,10.0,6.209,259.0,,'11111222,11111222,99999999' 
WAVCIS,ioos:station:WAVCIS:CSI06:1,2011-01-06T00:00:00Z,28.8667,-90.4833,10.0,7.0,241.0,,'11111222,11111222,99999999' 
WAVCIS,ioos:station:WAVCIS:CSI06:1,2011-01-06T01:00:00Z,28.8667,-90.4833,10.0,6.875,274.0,,'11111222,11111222,99999999' 
WAVCIS,ioos:station:WAVCIS:CSI06:1,2011-01-06T02:00:00Z,28.8667,-90.4833,10.0,7.44,283.0,,'11111222,11111222,99999999' 
WAVCIS,ioos:station:WAVCIS:CSI06:1,2011-01-06T03:00:00Z,28.8667,-90.4833,10.0,6.793,287.0,,'11111222,11111222,99999999' 
WAVCIS,ioos:station:WAVCIS:CSI06:1,2011-01-06T04:00:00Z,28.8667,-90.4833,10.0,8.95,297.0,,'11111222,11111222,99999999' 
WAVCIS,ioos:station:WAVCIS:CSI06:1,2011-01-06T05:00:00Z,28.8667,-90.4833,10.0,9.11,303.0,,'11111222,11111222,99999999' 
WAVCIS,ioos:station:WAVCIS:CSI06:1,2011-01-06T06:00:00Z,28.8667,-90.4833,10.0,8.71,309.0,,'11111222,11111222,99999999' 
WAVCIS,ioos:station:WAVCIS:CSI06:1,2011-01-06T07:00:00Z,28.8667,-90.4833,10.0,8.6,335.0,,'11111222,11111222,99999999' 
WAVCIS,ioos:station:WAVCIS:CSI06:1,2011-01-06T08:00:00Z,28.8667,-90.4833,10.0,4.917,352.0,,'11111222,11111222,99999999' 
WAVCIS,ioos:station:WAVCIS:CSI06:1,2011-01-06T09:00:00Z,28.8667,-90.4833,10.0,4.829,357.0,,'11111222,11111222,99999999' 
WAVCIS,ioos:station:WAVCIS:CSI06:1,2011-01-06T10:00:00Z,28.8667,-90.4833,10.0,9.82,13.0,,'11111222,11111222,99999999' 
WAVCIS,ioos:station:WAVCIS:CSI06:1,2011-01-06T11:00:00Z,28.8667,-90.4833,10.0,8.8,15.0,,'11111222,11111222,99999999' 
WAVCIS,ioos:station:WAVCIS:CSI06:1,2011-01-06T12:00:00Z,28.8667,-90.4833,10.0,6.221,14.0,,'11111222,11111222,99999999' 
WAVCIS,ioos:station:WAVCIS:CSI06:1,2011-01-06T13:00:00Z,28.8667,-90.4833,10.0,6.078,8.0,,'11111222,11111222,99999999' 
WAVCIS,ioos:station:WAVCIS:CSI06:1,2011-01-06T14:00:00Z,28.8667,-90.4833,10.0,6.431,5.0,,'11111222,11111222,99999999' 
WAVCIS,ioos:station:WAVCIS:CSI06:1,2011-01-06T15:00:00Z,28.8667,-90.4833,10.0,4.455,350.0,,'11111222,11111222,99999999' 
WAVCIS,ioos:station:WAVCIS:CSI06:1,2011-01-06T16:00:00Z,28.8667,-90.4833,10.0,4.692,337.0,,'11111222,11111222,99999999' 
WAVCIS,ioos:station:WAVCIS:CSI06:1,2011-01-06T17:00:00Z,28.8667,-90.4833,10.0,4.871,333.0,,'11111222,11111222,99999999' 
WAVCIS,ioos:station:WAVCIS:CSI06:1,2011-01-06T18:00:00Z,28.8667,-90.4833,10.0,5.232,326.0,,'11111222,11111222,99999999' 
WAVCIS,ioos:station:WAVCIS:CSI06:1,2011-01-06T19:00:00Z,28.8667,-90.4833,10.0,4.531,306.0,,'11111222,11111222,99999999' 
WAVCIS,ioos:station:WAVCIS:CSI06:1,2011-01-06T20:00:00Z,28.8667,-90.4833,10.0,6.004,281.0,,'11111222,11111222,99999999' 
WAVCIS,ioos:station:WAVCIS:CSI06:1,2011-01-06T21:00:00Z,28.8667,-90.4833,10.0,7.11,270.0,,'11111222,11111222,99999999' 
WAVCIS,ioos:station:WAVCIS:CSI06:1,2011-01-06T22:00:00Z,28.8667,-90.4833,10.0,9.24,282.0,,'11111222,11111222,99999999' 
WAVCIS,ioos:station:WAVCIS:CSI06:1,2011-01-06T23:00:00Z,28.8667,-90.4833,10.0,11.56,282.0,,'11111222,11111222,99999999' 
WAVCIS,ioos:station:WAVCIS:CSI06:1,2011-01-07T00:00:00Z,28.8667,-90.4833,10.0,11.52,283.0,,'11111222,11111222,99999999' 
WAVCIS,ioos:station:WAVCIS:CSI06:1,2011-01-07T01:00:00Z,28.8667,-90.4833,10.0,11.99,280.0,,'11111222,11111222,99999999' 
WAVCIS,ioos:station:WAVCIS:CSI06:1,2011-01-07T02:00:00Z,28.8667,-90.4833,10.0,11.28,286.0,,'11111222,11111222,99999999' 
WAVCIS,ioos:station:WAVCIS:CSI06:1,2011-01-07T03:00:00Z,28.8667,-90.4833,10.0,10.48,287.0,,'11111222,11111222,99999999' 
WAVCIS,ioos:station:WAVCIS:CSI06:1,2011-01-07T04:00:00Z,28.8667,-90.4833,10.0,11.63,290.0,,'11111222,11111222,99999999' 
WAVCIS,ioos:station:WAVCIS:CSI06:1,2011-01-07T05:00:00Z,28.8667,-90.4833,10.0,11.36,302.0,,'11111222,11111222,99999999' 
WAVCIS,ioos:station:WAVCIS:CSI06:1,2011-01-07T06:00:00Z,28.8667,-90.4833,10.0,9.08,323.0,,'11111222,11111222,99999999' 
WAVCIS,ioos:station:WAVCIS:CSI06:1,2011-01-07T07:00:00Z,28.8667,-90.4833,10.0,6.939,321.0,,'11111222,11111222,99999999' 
WAVCIS,ioos:station:WAVCIS:CSI06:1,2011-01-07T08:00:00Z,28.8667,-90.4833,10.0,5.621,302.0,,'11111222,11111222,99999999' 
WAVCIS,ioos:station:WAVCIS:CSI06:1,2011-01-07T09:00:00Z,28.8667,-90.4833,10.0,6.497,298.0,,'11111222,11111222,99999999' 
WAVCIS,ioos:station:WAVCIS:CSI06:1,2011-01-07T10:00:00Z,28.8667,-90.4833,10.0,7.04,288.0,,'11111222,11111222,99999999' 
WAVCIS,ioos:station:WAVCIS:CSI06:1,2011-01-07T11:00:00Z,28.8667,-90.4833,10.0,7.18,304.0,,'11111222,11111222,99999999' 
WAVCIS,ioos:station:WAVCIS:CSI06:1,2011-01-07T12:00:00Z,28.8667,-90.4833,10.0,6.87,302.0,,'11111222,11111222,99999999' 
WAVCIS,ioos:station:WAVCIS:CSI06:1,2011-01-07T13:00:00Z,28.8667,-90.4833,10.0,6.562,292.0,,'11111222,11111222,99999999' 
WAVCIS,ioos:station:WAVCIS:CSI06:1,2011-01-07T14:00:00Z,28.8667,-90.4833,10.0,6.095,276.0,,'11111222,11111222,99999999' 
WAVCIS,ioos:station:WAVCIS:CSI06:1,2011-01-07T15:00:00Z,28.8667,-90.4833,10.0,5.631,272.0,,'11111222,11111222,99999999' 
WAVCIS,ioos:station:WAVCIS:CSI06:1,2011-01-07T16:00:00Z,28.8667,-90.4833,10.0,5.888,263.0,,'11111222,11111222,99999999' 
WAVCIS,ioos:station:WAVCIS:CSI06:1,2011-01-07T17:00:00Z,28.8667,-90.4833,10.0,6.6,264.0,,'11111222,11111222,99999999' 
WAVCIS,ioos:station:WAVCIS:CSI06:1,2011-01-07T18:00:00Z,28.8667,-90.4833,10.0,9.13,260.0,,'11111222,11111222,99999999' 
WAVCIS,ioos:station:WAVCIS:CSI06:1,2011-01-07T19:00:00Z,28.8667,-90.4833,10.0,9.85,255.0,,'11111222,11111222,99999999' 
WAVCIS,ioos:station:WAVCIS:CSI06:1,2011-01-07T20:00:00Z,28.8667,-90.4833,10.0,10.78,269.0,,'11111222,11111222,99999999' 
WAVCIS,ioos:station:WAVCIS:CSI06:1,2011-01-07T21:00:00Z,28.8667,-90.4833,10.0,10.59,270.0,,'11111222,11111222,99999999' 
WAVCIS,ioos:station:WAVCIS:CSI06:1,2011-01-07T22:00:00Z,28.8667,-90.4833,10.0,9.95,271.0,,'11111222,11111222,99999999' 
WAVCIS,ioos:station:WAVCIS:CSI06:1,2011-01-07T23:00:00Z,28.8667,-90.4833,10.0,10.26,268.0,,'11111222,11111222,99999999' 
WAVCIS,ioos:station:WAVCIS:CSI06:1,2011-01-08T00:00:00Z,28.8667,-90.4833,10.0,9.51,269.0,,'11111222,11111222,99999999' 
WAVCIS,ioos:station:WAVCIS:CSI06:1,2011-01-08T01:00:00Z,28.8667,-90.4833,10.0,9.24,263.0,,'11111222,11111222,99999999' 
WAVCIS,ioos:station:WAVCIS:CSI06:1,2011-01-08T02:00:00Z,28.8667,-90.4833,10.0,9.61,264.0,,'11111222,11111222,99999999' 
WAVCIS,ioos:station:WAVCIS:CSI06:1,2011-01-08T03:00:00Z,28.8667,-90.4833,10.0,9.53,256.0,,'11111222,11111222,99999999' 
WAVCIS,ioos:station:WAVCIS:CSI06:1,2011-01-08T04:00:00Z,28.8667,-90.4833,10.0,8.87,262.0,,'11111222,11111222,99999999' 
WAVCIS,ioos:station:WAVCIS:CSI06:1,2011-01-08T05:00:00Z,28.8667,-90.4833,10.0,9.27,257.0,,'11111222,11111222,99999999' 
WAVCIS,ioos:station:WAVCIS:CSI06:1,2011-01-08T06:00:00Z,28.8667,-90.4833,10.0,8.64,262.0,,'11111222,11111222,99999999' 
WAVCIS,ioos:station:WAVCIS:CSI06:1,2011-01-08T07:00:00Z,28.8667,-90.4833,10.0,8.81,274.0,,'11111222,11111222,99999999' 
WAVCIS,ioos:station:WAVCIS:CSI06:1,2011-01-08T08:00:00Z,28.8667,-90.4833,10.0,9.11,273.0,,'11111222,11111222,99999999' 
WAVCIS,ioos:station:WAVCIS:CSI06:1,2011-01-08T09:00:00Z,28.8667,-90.4833,10.0,9.91,274.0,,'11111222,11111222,99999999' 
WAVCIS,ioos:station:WAVCIS:CSI06:1,2011-01-08T10:00:00Z,28.8667,-90.4833,10.0,11.02,282.0,,'11111222,11111222,99999999' 
WAVCIS,ioos:station:WAVCIS:CSI06:1,2011-01-08T11:00:00Z,28.8667,-90.4833,10.0,10.31,321.0,,'11111222,11111222,99999999' 
WAVCIS,ioos:station:WAVCIS:CSI06:1,2011-01-08T12:00:00Z,28.8667,-90.4833,10.0,6.09,4.0,,'11111222,11111222,99999999' 
WAVCIS,ioos:station:WAVCIS:CSI06:1,2011-01-08T13:00:00Z,28.8667,-90.4833,10.0,9.75,19.0,,'11111222,11111222,99999999' 
WAVCIS,ioos:station:WAVCIS:CSI06:1,2011-01-08T14:00:00Z,28.8667,-90.4833,10.0,8.97,22.0,,'11111222,11111222,99999999' 
WAVCIS,ioos:station:WAVCIS:CSI06:1,2011-01-08T15:00:00Z,28.8667,-90.4833,10.0,7.65,22.0,,'11111222,11111222,99999999' 
WAVCIS,ioos:station:WAVCIS:CSI06:1,2011-01-08T16:00:00Z,28.8667,-90.4833,10.0,5.999,30.0,,'11111222,11111222,99999999' 
WAVCIS,ioos:station:WAVCIS:CSI06:1,2011-01-08T17:00:00Z,28.8667,-90.4833,10.0,3.154,38.0,,'11111222,11111222,99999999' 
WAVCIS,ioos:station:WAVCIS:CSI06:1,2011-01-08T18:00:00Z,28.8667,-90.4833,10.0,2.633,33.0,,'11111222,11111222,99999999' 
WAVCIS,ioos:station:WAVCIS:CSI06:1,2011-01-08T19:00:00Z,28.8667,-90.4833,10.0,3.456,21.0,,'11111222,11111222,99999999' 
WAVCIS,ioos:station:WAVCIS:CSI06:1,2011-01-08T20:00:00Z,28.8667,-90.4833,10.0,1.763,12.0,,'11111222,11111222,99999999' 
WAVCIS,ioos:station:WAVCIS:CSI06:1,2011-01-08T21:00:00Z,28.8667,-90.4833,10.0,1.429,39.0,,'11111222,11111222,99999999' 
WAVCIS,ioos:station:WAVCIS:CSI06:1,2011-01-08T22:00:00Z,28.8667,-90.4833,10.0,1.856,72.0,,'11111222,11111222,99999999' 
WAVCIS,ioos:station:WAVCIS:CSI06:1,2011-01-08T23:00:00Z,28.8667,-90.4833,10.0,2.355,77.0,,'11111222,11111222,99999999' 
WAVCIS,ioos:station:WAVCIS:CSI06:1,2011-01-09T00:00:00Z,28.8667,-90.4833,10.0,2.35,82.0,,'11111222,11111222,99999999' 
WAVCIS,ioos:station:WAVCIS:CSI06:1,2011-01-09T01:00:00Z,28.8667,-90.4833,10.0,3.242,102.0,,'11111222,11111222,99999999' 
WAVCIS,ioos:station:WAVCIS:CSI06:1,2011-01-09T02:00:00Z,28.8667,-90.4833,10.0,4.134,90.0,,'11111222,11111222,99999999' 
WAVCIS,ioos:station:WAVCIS:CSI06:1,2011-01-09T03:00:00Z,28.8667,-90.4833,10.0,6.169,68.0,,'11111222,11111222,99999999' 
WAVCIS,ioos:station:WAVCIS:CSI06:1,2011-01-09T04:00:00Z,28.8667,-90.4833,10.0,6.635,91.0,,'11111222,11111222,99999999' 
WAVCIS,ioos:station:WAVCIS:CSI06:1,2011-01-09T05:00:00Z,28.8667,-90.4833,10.0,7.04,92.0,,'11111222,11111222,99999999' 
WAVCIS,ioos:station:WAVCIS:CSI06:1,2011-01-09T06:00:00Z,28.8667,-90.4833,10.0,7.14,74.0,,'11111222,11111222,99999999' 